Am Tubarao — A8ZA9 — position and weather

sailwx.info

Track history (hours):
 
Tides and Currents Weather Stations Pressure Air Temp Water Temp Dewpoint Dewpoint Depression Visibility Wind Speed Wind Dir Waves Ship Positions

Am Tubarao

Last reported at 2014-Oct-21 11:30 UTC. Time now 2014-Oct-21 11:59 UTC.
Position N 51°03' E 002°19'.

Length 230 m; draft 13 m.

Type: Cargo ship. MMSI: 636015171.

Date/timePositionNaut miles runAvg speedWind from/ knotsBaromVisibWave heightAir tempDewpointWater temp
2014-Oct-21 11:30N 51°03' E 002°19'0 0.0
2014-Oct-21 10:33N 51°03' E 002°19'0 0.0
2014-Oct-21 09:30N 51°03' E 002°19'0 0.0
2014-Oct-21 08:33N 51°03' E 002°19'0 0.0
2014-Oct-21 07:33N 51°03' E 002°19'0 0.0
2014-Oct-21 06:24N 51°03' E 002°19'0 0.0
2014-Oct-21 05:33N 51°03' E 002°19'0 0.0
2014-Oct-21 04:33N 51°03' E 002°19'0 0.0
2014-Oct-21 03:30N 51°03' E 002°19'0 0.0
2014-Oct-21 02:27N 51°03' E 002°19'0 0.0
2014-Oct-21 01:33N 51°03' E 002°19'0 0.0
2014-Oct-21 00:33N 51°03' E 002°19'0 0.0
2014-Oct-20 23:30N 51°03' E 002°19'0 0.0
2014-Oct-20 22:33N 51°03' E 002°19'0 0.0
2014-Oct-20 21:30N 51°03' E 002°19'0 0.0
2014-Oct-20 20:33N 51°03' E 002°19'0 0.0
2014-Oct-20 19:33N 51°03' E 002°19'0 0.0
2014-Oct-20 18:33N 51°03' E 002°19'0 0.0
2014-Oct-20 17:30N 51°03' E 002°19'0 0.0
2014-Oct-20 16:21N 51°03' E 002°19'0 0.0
2014-Oct-20 15:33N 51°03' E 002°19'0 0.0
2014-Oct-20 14:33N 51°03' E 002°19'0 0.0
2014-Oct-20 13:33N 51°03' E 002°19'0 0.0
2014-Oct-20 12:30N 51°03' E 002°19'0 0.0
2014-Oct-20 11:33N 51°03' E 002°19'0 0.0
2014-Oct-20 10:33N 51°03' E 002°19'0 0.0
2014-Oct-20 09:24N 51°03' E 002°19'0 0.0
2014-Oct-20 08:33N 51°03' E 002°19'0 0.0
2014-Oct-20 07:34N 51°03' E 002°19'0 0.0
2014-Oct-20 06:24N 51°03' E 002°19'0 0.0
2014-Oct-20 05:27N 51°03' E 002°19'0 0.0
2014-Oct-20 04:30N 51°03' E 002°19'0 0.0
2014-Oct-20 03:33N 51°03' E 002°19'0 0.0
2014-Oct-20 02:33N 51°03' E 002°19'0 0.0
2014-Oct-20 01:33N 51°03' E 002°19'0 0.4
2014-Oct-20 00:33N 51°03' E 002°19'1 0.8
2014-Oct-19 23:33N 51°03' E 002°21'3 3.4
2014-Oct-19 22:33N 51°04' E 002°15'1110.7
2014-Oct-19 21:33N 51°02' E 001°58'7 6.4
2014-Oct-19 20:29N 51°03' E 001°48'0 0.0
2014-Oct-19 19:32N 51°03' E 001°48'0 0.0
2014-Oct-19 18:32N 51°03' E 001°48'0 0.0
2014-Oct-19 17:32N 51°03' E 001°48'0 0.2
2014-Oct-19 16:32N 51°03' E 001°47'0 0.1
2014-Oct-19 15:32N 51°03' E 001°48'0 0.2
2014-Oct-19 14:32N 51°03' E 001°48'0 0.0
2014-Oct-19 13:29N 51°03' E 001°48'0 0.0
2014-Oct-19 12:26N 51°03' E 001°48'0 0.0
2014-Oct-19 11:32N 51°03' E 001°48'0 0.0
2014-Oct-19 10:23N 51°03' E 001°48'0 0.0
2014-Oct-19 09:32N 51°03' E 001°48'0 0.0
2014-Oct-19 08:32N 51°03' E 001°48'0 0.0
2014-Oct-19 07:32N 51°03' E 001°48'0 0.0
2014-Oct-19 06:32N 51°03' E 001°48'0 0.3
2014-Oct-19 05:32N 51°03' E 001°47'0 0.0
2014-Oct-19 04:32N 51°03' E 001°47'0 0.0
2014-Oct-19 03:32N 51°03' E 001°47'0 0.0
2014-Oct-19 02:32N 51°03' E 001°47'0 0.1
2014-Oct-19 01:32N 51°03' E 001°47'0 0.2
2014-Oct-19 00:32N 51°03' E 001°47'0 0.1
2014-Oct-18 23:23N 51°03' E 001°48'0 0.0
2014-Oct-18 22:32N 51°03' E 001°48'0 0.0
2014-Oct-18 21:32N 51°03' E 001°48'0 0.0
2014-Oct-18 20:32N 51°03' E 001°48'0 0.1
2014-Oct-18 19:32N 51°03' E 001°48'1 0.8
2014-Oct-18 18:33N 51°03' E 001°47'7 6.9
2014-Oct-18 17:33N 50°60' E 001°37'8 8.2
2014-Oct-18 16:33N 50°54' E 001°28'1010.2
2014-Oct-18 15:33N 50°44' E 001°22'  
Track history (hours):
 
Tides and Currents Weather Stations Pressure Air Temp Water Temp Dewpoint Dewpoint Depression Visibility Wind Speed Wind Dir Waves Ship Positions

Am Tubarao

Last reported at 2014-Oct-21 11:30 UTC. Time now 2014-Oct-21 11:59 UTC.
Position N 51°03' E 002°19'.

Length 230 m; draft 13 m.

Type: Cargo ship. MMSI: 636015171.

Date/timePositionNaut miles runAvg speedWind from/ knotsBaromVisibWave heightAir tempDewpointWater temp
2014-Oct-21 11:30N 51°03' E 002°19'0 0.0
2014-Oct-21 10:33N 51°03' E 002°19'0 0.0
2014-Oct-21 09:30N 51°03' E 002°19'0 0.0
2014-Oct-21 08:33N 51°03' E 002°19'0 0.0
2014-Oct-21 07:33N 51°03' E 002°19'0 0.0
2014-Oct-21 06:24N 51°03' E 002°19'0 0.0
2014-Oct-21 05:33N 51°03' E 002°19'0 0.0
2014-Oct-21 04:33N 51°03' E 002°19'0 0.0
2014-Oct-21 03:30N 51°03' E 002°19'0 0.0
2014-Oct-21 02:27N 51°03' E 002°19'0 0.0
2014-Oct-21 01:33N 51°03' E 002°19'0 0.0
2014-Oct-21 00:33N 51°03' E 002°19'0 0.0
2014-Oct-20 23:30N 51°03' E 002°19'0 0.0
2014-Oct-20 22:33N 51°03' E 002°19'0 0.0
2014-Oct-20 21:30N 51°03' E 002°19'0 0.0
2014-Oct-20 20:33N 51°03' E 002°19'0 0.0
2014-Oct-20 19:33N 51°03' E 002°19'0 0.0
2014-Oct-20 18:33N 51°03' E 002°19'0 0.0
2014-Oct-20 17:30N 51°03' E 002°19'0 0.0
2014-Oct-20 16:21N 51°03' E 002°19'0 0.0
2014-Oct-20 15:33N 51°03' E 002°19'0 0.0
2014-Oct-20 14:33N 51°03' E 002°19'0 0.0
2014-Oct-20 13:33N 51°03' E 002°19'0 0.0
2014-Oct-20 12:30N 51°03' E 002°19'0 0.0
2014-Oct-20 11:33N 51°03' E 002°19'0 0.0
2014-Oct-20 10:33N 51°03' E 002°19'0 0.0
2014-Oct-20 09:24N 51°03' E 002°19'0 0.0
2014-Oct-20 08:33N 51°03' E 002°19'0 0.0
2014-Oct-20 07:34N 51°03' E 002°19'0 0.0
2014-Oct-20 06:24N 51°03' E 002°19'0 0.0
2014-Oct-20 05:27N 51°03' E 002°19'0 0.0
2014-Oct-20 04:30N 51°03' E 002°19'0 0.0
2014-Oct-20 03:33N 51°03' E 002°19'0 0.0
2014-Oct-20 02:33N 51°03' E 002°19'0 0.0
2014-Oct-20 01:33N 51°03' E 002°19'0 0.4
2014-Oct-20 00:33N 51°03' E 002°19'1 0.8
2014-Oct-19 23:33N 51°03' E 002°21'3 3.4
2014-Oct-19 22:33N 51°04' E 002°15'1110.7
2014-Oct-19 21:33N 51°02' E 001°58'7 6.4
2014-Oct-19 20:29N 51°03' E 001°48'0 0.0
2014-Oct-19 19:32N 51°03' E 001°48'0 0.0
2014-Oct-19 18:32N 51°03' E 001°48'0 0.0
2014-Oct-19 17:32N 51°03' E 001°48'0 0.2
2014-Oct-19 16:32N 51°03' E 001°47'0 0.1
2014-Oct-19 15:32N 51°03' E 001°48'0 0.2
2014-Oct-19 14:32N 51°03' E 001°48'0 0.0
2014-Oct-19 13:29N 51°03' E 001°48'0 0.0
2014-Oct-19 12:26N 51°03' E 001°48'0 0.0
2014-Oct-19 11:32N 51°03' E 001°48'0 0.0
2014-Oct-19 10:23N 51°03' E 001°48'0 0.0
2014-Oct-19 09:32N 51°03' E 001°48'0 0.0
2014-Oct-19 08:32N 51°03' E 001°48'0 0.0
2014-Oct-19 07:32N 51°03' E 001°48'0 0.0
2014-Oct-19 06:32N 51°03' E 001°48'0 0.3
2014-Oct-19 05:32N 51°03' E 001°47'0 0.0
2014-Oct-19 04:32N 51°03' E 001°47'0 0.0
2014-Oct-19 03:32N 51°03' E 001°47'0 0.0
2014-Oct-19 02:32N 51°03' E 001°47'0 0.1
2014-Oct-19 01:32N 51°03' E 001°47'0 0.2
2014-Oct-19 00:32N 51°03' E 001°47'0 0.1
2014-Oct-18 23:23N 51°03' E 001°48'0 0.0
2014-Oct-18 22:32N 51°03' E 001°48'0 0.0
2014-Oct-18 21:32N 51°03' E 001°48'0 0.0
2014-Oct-18 20:32N 51°03' E 001°48'0 0.1
2014-Oct-18 19:32N 51°03' E 001°48'1 0.8
2014-Oct-18 18:33N 51°03' E 001°47'7 6.9
2014-Oct-18 17:33N 50°60' E 001°37'8 8.2
2014-Oct-18 16:33N 50°54' E 001°28'1010.2
2014-Oct-18 15:33N 50°44' E 001°22'  

Dump ship's entire track history